[[{"header":{"parameterUnit":"m.s-1","parameterCategory":1,"la1":30.2991,"la2":30.254,"lo1":-89.0895,"lo2":-89.0444,"dy":0.0017,"dx":0.0017,"nx":28,"ny":28,"refTime":"2023-11-02T21:00:00:Z","depth":0,"parameterNumber":2,"parameterNumberName":"U-component_of_WINDS"},"data":[0,0,0,0,0,0,0,0,0,0,0,0,0,0,0,0,0,0,0,0,0,0,0,0,0,0,0,0,0,0,0,0,0,0,0,0,0,0,0,0,0,0,0,0,0,0,0,0,0,0,0,0,0,0,0,0,0,0,-3.5548,-3.5549,0,-3.5572,-3.5572,-3.5573,-3.5472,-3.5469,-3.5466,-3.5463,-3.5485,-3.5489,-3.5492,0,0,0,0,0,0,0,0,0,0,0,0,0,-3.5414,-3.5417,-3.5548,-3.5549,-3.5549,-3.5572,-3.5572,-3.5573,-3.5472,-3.5469,-3.5465,-3.5462,-3.5484,-3.5488,-3.5492,0,0,0,0,0,0,0,0,0,0,0,0,0,-3.5459,-3.5418,-3.5548,-3.5502,-3.5498,-3.5572,-3.5572,-3.5573,-3.5473,-3.5469,-3.5464,-3.546,-3.5483,-3.5488,-3.5493,-3.5612,0,0,-3.5508,-3.551,0,0,0,0,0,0,0,0,-3.5456,-3.5464,-3.5508,-3.5505,-3.5501,-3.5514,-3.5533,-3.5586,-3.5474,-3.5482,-3.5463,-3.5458,-3.5499,-3.5502,-3.5516,-3.5613,-3.5614,-3.5509,-3.5512,-3.5514,-3.5515,0,0,0,0,0,0,0,-3.5453,-3.5462,-3.5558,-3.5509,-3.5505,-3.5479,-3.548,-3.5543,-3.5515,-3.5481,-3.5474,-3.5478,-3.5496,-3.5512,-3.5516,-3.5615,-3.5508,-3.5513,-3.5516,-3.5518,-3.581,-3.5814,0,0,0,0,0,0,-3.5457,-3.546,-3.5557,-3.5558,-3.5467,-3.5485,-3.5487,-3.5515,-3.5514,-3.551,-3.5482,-3.5474,-3.5505,-3.551,-3.5516,-3.5655,-3.5514,-3.5518,-3.5521,-3.5805,-3.5811,-3.5816,0,0,0,0,0,0,-3.5454,-3.5466,-3.5556,-3.5507,-3.5517,-3.5492,-3.5524,-3.5517,-3.5533,-3.5515,-3.5509,-3.5504,-3.5502,-3.5509,-3.5589,-3.5654,-3.5521,-3.5525,-3.5799,-3.5807,-3.5813,-3.5934,0,0,0,0,0,0,-3.5451,-3.5466,-3.5512,-3.5509,-3.552,-3.5629,-3.5528,-3.5521,-3.5542,-3.5531,-3.5533,-3.5529,-3.5499,-3.5582,-3.5594,-3.5659,-3.5529,-3.5793,-3.5803,-3.5811,-3.5924,-3.5945,-3.5962,0,0,0,0,0,-3.5446,-3.5544,-3.5514,-3.5527,-3.5576,-3.5633,-3.5639,-3.5603,-3.5548,-3.5593,-3.5581,-3.5529,-3.5646,-3.5591,-3.5604,-3.5671,-3.5789,-3.58,-3.581,-3.5916,-3.5941,-3.5962,0,0,0,0,0,0,-3.5554,-3.5543,-3.551,-3.561,-3.5624,-3.5616,-3.5672,-3.563,-3.5659,-3.5648,-3.5601,-3.5602,-3.569,-3.5688,-3.5628,-3.5786,-3.5708,-3.5721,-3.5783,-3.5807,-3.5825,-3.5823,-3.5533,0,0,0,0,0,-3.559,-3.5638,-3.5625,-3.5715,-3.5724,-3.5697,-3.572,-3.5691,-3.5703,-3.5708,-3.5702,-3.5714,-3.5753,-3.578,-3.5815,-3.5924,-3.5922,-3.5976,-3.5995,-3.6011,-3.6023,-3.6079,-3.6103,-3.5851,-3.5851,-3.5851,0,0,-3.5664,-3.5664,-3.5697,-3.5737,-3.5744,-3.5793,-3.5702,-3.5759,-3.5795,-3.5716,-3.5791,-3.5787,-3.5798,-3.5893,-3.5934,-3.5894,-3.6092,-3.6025,-3.6037,-3.604,-3.6092,-3.6116,-3.6138,-3.5858,-3.5857,-3.5856,0,0,-3.5824,-3.5829,-3.5904,-3.5913,-3.5925,-3.5906,-3.5925,-3.5924,-3.5918,-3.5993,-3.5935,-3.5977,-3.6046,-3.6055,-3.607,-3.6234,-3.6186,-3.6247,-3.6345,-3.64,-3.642,-3.6437,-3.6494,-3.6516,-3.6259,-3.6259,-3.6259,0,-3.5914,-3.5987,-3.5948,-3.6008,-3.6027,-3.5959,-3.6034,-3.6044,-3.6067,-3.6081,-3.6037,-3.6121,-3.6124,-3.6219,-3.6259,-3.6274,-3.6292,-3.6245,-3.642,-3.6437,-3.6453,-3.6507,-3.6529,-3.6266,-3.6265,-3.6265,-3.6264,0,-3.6096,-3.6148,-3.6207,-3.6231,-3.6257,-3.6325,-3.6295,-3.6325,-3.6294,-3.6281,-3.6357,-3.6358,-3.6392,-3.6413,-3.6383,-3.6504,-3.6479,-3.6428,-3.6348,-3.6485,-3.6534,-3.6555,-3.6276,-3.6274,-3.6272,-3.627,0,0,-3.6324,-3.6326,-3.6348,-3.6358,-3.6366,-3.6405,-3.6469,-3.6503,-3.6529,-3.6548,-3.6599,-3.666,-3.6613,-3.6629,-3.66,-3.6649,-3.6777,-3.6592,-3.6591,-3.6625,-3.6909,-3.6946,-3.6971,-3.6746,-3.675,-3.6753,-3.6908,0,-3.6479,-3.659,-3.6556,-3.6667,-3.6713,-3.665,-3.6705,-3.6716,-3.6705,-3.6743,-3.673,-3.6773,-3.6709,-3.6718,-3.6764,-3.6752,-3.6833,-3.674,-3.6793,-3.6795,-3.6791,-3.6997,-3.7036,-3.7182,-3.6927,-3.693,-3.6933,0,-3.6675,-3.6702,-3.6817,-3.6817,-3.6836,-3.6887,-3.6914,-3.6951,-3.6962,-3.695,-3.6969,-3.693,-3.6991,-3.6913,-3.6997,-3.6935,-3.6954,-3.6952,-3.6957,-3.6959,-3.6871,-3.7003,-3.7228,-3.7249,-3.6963,-3.6961,-3.6959,0,-3.6828,-3.6893,-3.697,-3.698,-3.6983,-3.702,-3.7022,-3.7029,-3.7051,-3.7075,-3.7089,-3.712,-3.7137,-3.7162,-3.7132,-3.7077,-3.722,-3.7139,-3.7211,-3.7212,-3.7243,-3.7241,-3.7472,-3.7259,-3.7258,-3.7258,-3.7257,0,-3.7005,-3.7077,-3.7038,-3.7086,-3.7165,-3.7126,-3.7205,-3.7201,-3.7207,-3.7251,-3.7199,-3.7241,-3.72,-3.7238,-3.7215,-3.7288,-3.7296,-3.7288,-3.7281,-3.7292,-3.7293,-3.7303,-3.7291,-3.7264,-3.7262,-3.7261,-3.726,0,-3.7188,-3.7165,-3.7245,-3.7241,-3.7241,-3.73,-3.7296,-3.7339,-3.7324,-3.7382,-3.7393,-3.737,-3.7413,-3.7386,-3.7429,-3.7413,-3.7508,-3.7487,-3.7505,-3.7498,-3.7572,-3.7565,-3.7816,-3.7846,-3.7615,-3.7617,-3.7619,0,-3.7301,-3.7356,-3.7358,-3.7384,-3.7391,-3.7434,-3.7456,-3.742,-3.7445,-3.7462,-3.7503,-3.7541,-3.757,-3.7642,-3.7629,-3.7661,-3.764,-3.7726,-3.7645,-3.7654,-3.764,-3.7636,-3.7641,-3.7742,-3.7745,-3.7747,-3.7749,0,-3.7505,-3.7491,-3.7525,-3.7557,-3.7585,-3.7608,-3.7626,-3.7651,-3.7614,-3.7645,-3.7689,-3.7711,-3.7756,-3.7795,-3.7822,-3.7823,-3.778,-3.7775,-3.7793,-3.7804,-3.7811,-3.7807,-3.7548,-3.7769,-3.7767,-3.7765,-3.7764,-3.7763,-3.7655,-3.7701,-3.7709,-3.7749,-3.776,-3.7778,-3.7818,-3.7809,-3.7845,-3.7878,-3.7855,-3.7906,-3.7915,-3.7947,-3.7955,-3.7994,-3.7959,-3.7985,-3.7992,-3.7999,-3.8008,-3.7807,-3.7999,-3.7998,-3.7998,-3.7997,-3.7997,0,-3.7855,-3.7857,-3.7895,-3.7922,-3.7954,-3.7911,-3.7929,-3.7958,-3.8005,-3.8017,-3.8046,-3.8096,-3.8133,-3.8124,-3.8157,-3.819,-3.8171,-3.82,-3.8196,-3.8197,-3.8038,-3.8019,-3.8215,-3.8215,-3.8214,-3.8214,-3.8214,-3.8214,-3.7962,-3.8036,-3.8023,-3.8101,-3.8102,-3.8153,-3.8167,-3.8183,-3.8192,-3.8251,-3.8281,-3.8275,-3.8278,-3.8311,-3.8343,-3.8339,-3.8353,-3.8389,-3.8378,-3.823,-3.8208,-3.8188,-3.8169,-3.8393,-3.8393,-3.8533,-3.8534,-3.8535]},{"header":{"parameterUnit":"m.s-1","parameterCategory":1,"la1":30.2991,"la2":30.254,"lo1":-89.0895,"lo2":-89.0444,"dy":0.0017,"dx":0.0017,"nx":28,"ny":28,"refTime":"2023-11-02T21:00:00:Z","depth":0,"parameterNumber":3,"parameterNumberName":"V-component_of_WINDS"},"data":[0,0,0,0,0,0,0,0,0,0,0,0,0,0,0,0,0,0,0,0,0,0,0,0,0,0,0,0,0,0,0,0,0,0,0,0,0,0,0,0,0,0,0,0,0,0,0,0,0,0,0,0,0,0,0,0,0,0,-1.3641,-1.3641,0,-1.3709,-1.371,-1.3711,-1.3732,-1.3731,-1.3731,-1.3731,-1.3796,-1.3798,-1.38,0,0,0,0,0,0,0,0,0,0,0,0,0,-1.3521,-1.3523,-1.3641,-1.3641,-1.3642,-1.3709,-1.371,-1.3711,-1.3732,-1.3731,-1.3731,-1.3731,-1.3796,-1.3798,-1.38,0,0,0,0,0,0,0,0,0,0,0,0,0,-1.3579,-1.3524,-1.364,-1.3661,-1.3663,-1.3709,-1.371,-1.3711,-1.3732,-1.3731,-1.3731,-1.373,-1.3795,-1.3798,-1.3801,-1.383,0,0,-1.381,-1.3812,0,0,0,0,0,0,0,0,-1.3576,-1.3584,-1.3657,-1.3659,-1.3662,-1.3712,-1.3692,-1.3751,-1.3732,-1.3706,-1.3731,-1.373,-1.3768,-1.3773,-1.3787,-1.3833,-1.3836,-1.381,-1.3812,-1.3814,-1.3815,0,0,0,0,0,0,0,-1.3572,-1.3581,-1.3668,-1.3658,-1.3661,-1.3664,-1.3672,-1.3703,-1.3739,-1.3708,-1.371,-1.3718,-1.3769,-1.3784,-1.3789,-1.3837,-1.381,-1.3813,-1.3815,-1.3816,-1.3908,-1.3908,0,0,0,0,0,0,-1.3565,-1.3577,-1.3665,-1.367,-1.3617,-1.3667,-1.3676,-1.3696,-1.3738,-1.3745,-1.3718,-1.3718,-1.3779,-1.3785,-1.3791,-1.3828,-1.3814,-1.3817,-1.3818,-1.3907,-1.3908,-1.3909,0,0,0,0,0,0,-1.3563,-1.3573,-1.3663,-1.3624,-1.3636,-1.367,-1.3692,-1.3698,-1.3713,-1.3746,-1.3752,-1.3727,-1.3779,-1.3787,-1.382,-1.383,-1.3818,-1.3821,-1.3907,-1.3907,-1.3908,-1.3901,0,0,0,0,0,0,-1.3559,-1.3572,-1.3585,-1.3624,-1.3638,-1.3692,-1.3693,-1.3699,-1.3719,-1.372,-1.3756,-1.3762,-1.3779,-1.3815,-1.3823,-1.3834,-1.3823,-1.3906,-1.3907,-1.3908,-1.39,-1.3901,-1.3902,0,0,0,0,0,-1.3555,-1.3579,-1.3586,-1.3596,-1.3655,-1.3693,-1.37,-1.3722,-1.3719,-1.3732,-1.3753,-1.3761,-1.3828,-1.3819,-1.3828,-1.384,-1.3905,-1.3907,-1.3908,-1.39,-1.3901,-1.3902,0,0,0,0,0,0,-1.3539,-1.3585,-1.3592,-1.3631,-1.3658,-1.3696,-1.3713,-1.3722,-1.375,-1.3749,-1.3772,-1.378,-1.3812,-1.3829,-1.3818,-1.3869,-1.3866,-1.387,-1.3857,-1.3859,-1.386,-1.3855,-1.3826,0,0,0,0,0,-1.354,-1.3569,-1.3607,-1.3637,-1.365,-1.3679,-1.3696,-1.371,-1.3738,-1.375,-1.3773,-1.3799,-1.3826,-1.3843,-1.387,-1.3902,-1.391,-1.3915,-1.3916,-1.3916,-1.3919,-1.3936,-1.3939,-1.3913,-1.3913,-1.3913,0,0,-1.3543,-1.3571,-1.3588,-1.3634,-1.3657,-1.3684,-1.3689,-1.3718,-1.3738,-1.3753,-1.3787,-1.3805,-1.3835,-1.3868,-1.3883,-1.3883,-1.3927,-1.3918,-1.3918,-1.3921,-1.3938,-1.394,-1.3943,-1.3914,-1.3914,-1.3914,0,0,-1.3561,-1.3586,-1.3614,-1.3636,-1.3671,-1.369,-1.3696,-1.3733,-1.3746,-1.378,-1.3792,-1.3815,-1.3861,-1.3882,-1.3898,-1.3922,-1.393,-1.393,-1.3935,-1.3952,-1.3954,-1.3956,-1.3964,-1.3967,-1.3932,-1.3932,-1.3932,0,-1.356,-1.3604,-1.3626,-1.3655,-1.3674,-1.3691,-1.3718,-1.3738,-1.3778,-1.379,-1.3789,-1.3847,-1.3868,-1.3906,-1.3912,-1.3924,-1.3931,-1.3927,-1.3952,-1.3954,-1.3956,-1.3964,-1.3967,-1.3932,-1.3932,-1.3932,-1.3932,0,-1.3599,-1.3629,-1.3647,-1.3687,-1.3708,-1.3736,-1.3761,-1.3779,-1.379,-1.3808,-1.3841,-1.3867,-1.3899,-1.3908,-1.3919,-1.3947,-1.3945,-1.3948,-1.3946,-1.3958,-1.3966,-1.3969,-1.3932,-1.3932,-1.3932,-1.3932,0,0,-1.3612,-1.3664,-1.367,-1.3688,-1.3727,-1.3749,-1.3776,-1.3808,-1.3823,-1.3849,-1.3872,-1.3909,-1.3911,-1.393,-1.3943,-1.3957,-1.3974,-1.3958,-1.3959,-1.396,-1.4005,-1.4004,-1.4007,-1.3979,-1.398,-1.398,-1.4003,0,-1.3636,-1.3688,-1.3708,-1.3748,-1.3775,-1.379,-1.3813,-1.3838,-1.3855,-1.3878,-1.3896,-1.3923,-1.3924,-1.3935,-1.395,-1.3969,-1.3983,-1.3967,-1.3999,-1.4,-1.3992,-1.4011,-1.401,-1.403,-1.4006,-1.4006,-1.4007,0,-1.3671,-1.37,-1.3744,-1.3778,-1.379,-1.3811,-1.3841,-1.3864,-1.3891,-1.3902,-1.3922,-1.3934,-1.396,-1.3955,-1.3991,-1.398,-1.3993,-1.4004,-1.4006,-1.401,-1.4005,-1.4016,-1.4037,-1.4041,-1.4012,-1.4012,-1.4011,0,-1.3676,-1.3725,-1.3758,-1.3772,-1.3813,-1.3827,-1.3844,-1.3871,-1.3889,-1.3914,-1.3925,-1.3953,-1.3968,-1.3988,-1.4006,-1.4001,-1.404,-1.4037,-1.4049,-1.4048,-1.4058,-1.4057,-1.4081,-1.4065,-1.4065,-1.4065,-1.4065,0,-1.3702,-1.3728,-1.376,-1.3781,-1.3809,-1.3831,-1.3858,-1.3876,-1.3899,-1.3922,-1.3935,-1.3955,-1.3977,-1.3999,-1.4013,-1.404,-1.4046,-1.4055,-1.4059,-1.4055,-1.4054,-1.4064,-1.4064,-1.4066,-1.4065,-1.4065,-1.4065,0,-1.3713,-1.3736,-1.3772,-1.3807,-1.3816,-1.3836,-1.3865,-1.3884,-1.3901,-1.3928,-1.3936,-1.3962,-1.3988,-1.4008,-1.4042,-1.4051,-1.408,-1.4083,-1.4072,-1.4073,-1.4084,-1.4083,-1.4117,-1.4123,-1.4102,-1.4102,-1.4102,0,-1.3728,-1.3749,-1.3786,-1.3803,-1.382,-1.3846,-1.3864,-1.3885,-1.3903,-1.3935,-1.3949,-1.3977,-1.4,-1.4042,-1.4062,-1.4088,-1.4092,-1.4102,-1.4096,-1.4091,-1.4092,-1.4091,-1.4093,-1.4103,-1.4103,-1.4104,-1.4104,0,-1.3752,-1.3762,-1.3789,-1.3819,-1.3841,-1.3865,-1.3889,-1.3901,-1.3926,-1.3945,-1.3973,-1.3991,-1.4026,-1.4053,-1.408,-1.4095,-1.4103,-1.4105,-1.4109,-1.4106,-1.4098,-1.4103,-1.4074,-1.4105,-1.4104,-1.4104,-1.4104,-1.4104,-1.3766,-1.3785,-1.3814,-1.3843,-1.3863,-1.3885,-1.3905,-1.3924,-1.3948,-1.3979,-1.3989,-1.4018,-1.4042,-1.408,-1.4095,-1.4116,-1.4116,-1.4122,-1.4124,-1.4125,-1.4125,-1.4094,-1.4121,-1.4121,-1.4121,-1.4121,-1.4121,0,-1.3792,-1.3811,-1.3837,-1.3871,-1.3893,-1.3899,-1.3925,-1.3943,-1.3969,-1.3991,-1.4014,-1.4045,-1.4071,-1.4093,-1.4119,-1.4132,-1.4136,-1.4138,-1.4138,-1.4141,-1.4124,-1.4118,-1.4134,-1.4134,-1.4134,-1.4134,-1.4134,-1.4134,-1.3808,-1.384,-1.3852,-1.3894,-1.3912,-1.3942,-1.3956,-1.3976,-1.3994,-1.4029,-1.4051,-1.4065,-1.4087,-1.4114,-1.4137,-1.4143,-1.4152,-1.4153,-1.416,-1.4144,-1.4142,-1.4141,-1.4135,-1.4155,-1.4155,-1.4175,-1.4175,-1.4175]}]]